CZ-3B DEB, 52965

Orbit data source: Space-Track

CZ-3B DEB, 52965 is space debris in HEO originally from a launch on Sat, 04 Sep 2010 UTC launched from the Xichang Space Center, China (XSC). Debris objects in space refer to the collection of defunct objects orbiting the Earth. Examples of debris include non-operational satellites, rocket bodies, and fragments generated from explosions, collisions, or faulty payload assembly.

Loading next visibility...
Identifier
52965, 2010-042AJ
Orbit
HEO
Country
Flag of CNCN / PRC
Related business
Manufacturer
CALT
Mission
Spacecraft
Bus & Motor
Unknown
Mass
Unknown
Launch date (UTC)
2010-09-04 (15 years ago)
Launch vehicle
Unknown
Launch site
Xichang Space Center, China (XSC)
Object type
Payload
Rocket body
Debris
Shape & HBR
Unknown shape, 0.2 m
Radar Cross Section
Small (<0.1 m²)

Expand to show TLE details & history
Last TLE update: 9 months ago

TLE from 9 months ago
0 CZ-3B DEB
1 52965U 10042AJ  25034.26342965 -.00000810  00000-0 -63790-1 0  9992
2 52965  25.0343 354.8954 7418474 274.8715  12.4385  1.82724649 19166
Epoch: 2025-02-03T06:19Z
TLE epoch observation values (Epoch: 2025-02-03T06:19:20.321Z)
Latitude
-0.00014°
Longitude
126.36417°
Altitude
5,573.224 km
Speed
7.252 km/s
True Right ascension
23h 39m 32s
True Declination
0° 00' 01"
Sunlit
Object was in daylight at epoch
Visualization orbit readout
Latitude
Unknown
Longitude
Unknown
Altitude
Unknown
Speed
Unknown
Apparent Right ascension
Unknown
Apparent Declination
Unknown
Sunlit
N/A
Visualization observer readout
Local Sidereal Time
13:31:33
Azimuth
Unknown
Elevation
Unknown
Doppler factor
Unknown
Orbital elements
Apogee altitude
42,856.666 km
Perigee altitude
918.767 km
Semi-major axis
28,265.854 km
Eccentricity
0.74185
Inclination
25.0343°
RAAN
354.8954°
Arg. of periapsis
274.8715°
True anomaly
85.91412°
Mean anomaly
12.4385°
Eccentric anomaly
39.4411°
Mean motion
0.45672 °/min
Orbital period
788.23 mins
BSTAR
-0.06379
Loading maneuver chart data...
Computing Atmospheric mass density...
Loading historical data...
Loading historical data...
Loading historical data...
Loading historical data...
Loading historical data...
Loading historical data...
Loading historical data...

Documentation

Showing up to 5 results
|